GFSGBSN_700_temp_237.txt.gz
Temp
-0 -0 -1 -1 -1 -1 -1 -2 -2 -3 -3 -3 -3 -3 -3 -3 -4 -3 -3 -3 -2 -1 -1 -0 -0 1 2 2 5 4 4 6 7 6 7 7 7 7 6 7 8 9 9 10 10 10 10
-1 -1 -1 -1 -2 -2 -2 -3 -3 -3 -4 -4 -4 -4 -4 -4 -4 -4 -4 -4 -4 -3 -2 -2 -1 -1 -1 1 2 3 3 5 6 6 7 7 7 6 7 7 9 9 9 9 10 9 9
-2 -2 -2 -2 -2 -3 -3 -3 -3 -4 -4 -4 -5 -5 -5 -5 -5 -4 -5 -5 -4 -5 -4 -4 -2 -1 -2 2 2 3 2 3 5 5 5 7 6 5 6 7 8 9 9 9 9 10 9
-2 -2 -3 -3 -3 -3 -4 -4 -4 -5 -5 -5 -5 -5 -5 -5 -5 -5 -5 -5 -5 -5 -5 -6 -6 -5 -2 -1 1 2 3 4 3 4 4 3 3 5 6 7 7 8 8 9 10 10 9
-2 -3 -3 -3 -4 -4 -4 -4 -5 -5 -6 -6 -6 -6 -6 -6 -6 -5 -5 -5 -6 -6 -6 -7 -7 -8 -1 -1 -1 1 1 3 3 3 4 3 2 4 5 6 7 8 9 9 10 11 10
-3 -3 -4 -4 -4 -4 -5 -5 -6 -6 -6 -7 -7 -7 -7 -6 -6 -6 -6 -6 -6 -6 -6 -7 -8 -7 -1 -1 -1 -2 0 1 1 1 2 3 2 3 4 6 7 8 9 10 11 11 11
-4 -4 -4 -5 -5 -5 -5 -6 -6 -7 -7 -7 -7 -7 -7 -7 -7 -7 -6 -6 -7 -8 -7 -6 -7 -7 -6 -5 -2 -2 -1 -1 -0 -1 0 3 2 4 6 7 7 9 9 10 10 11 11
-4 -5 -5 -5 -6 -6 -6 -6 -7 -7 -7 -7 -7 -7 -7 -7 -7 -7 -7 -7 -7 -8 -7 -7 -5 -5 -6 -7 -3 -2 -2 -1 -2 -2 0 1 2 4 6 7 7 8 9 10 11 10 10
-5 -5 -5 -6 -6 -6 -6 -7 -7 -7 -8 -8 -8 -8 -8 -7 -7 -8 -8 -8 -8 -8 -8 -5 -4 -5 -7 -7 -5 -2 -2 -2 -2 -2 -1 1 3 5 5 6 7 7 8 9 10 10 10
-5 -6 -6 -6 -6 -7 -7 -7 -7 -8 -8 -8 -8 -8 -8 -8 -8 -8 -8 -9 -9 -8 -9 -7 -6 -6 -7 -7 -6 -1 -2 -2 -2 -1 -1 -1 3 4 4 5 6 7 8 8 9 10 10
-6 -6 -6 -6 -7 -7 -7 -7 -8 -8 -8 -9 -8 -8 -8 -8 -8 -8 -10 -9 -9 -9 -7 -4 -4 -6 -6 -7 -5 -4 -2 -2 -3 -2 -2 -2 0 3 4 5 5 7 8 8 7 8 9
-6 -7 -7 -7 -7 -7 -8 -8 -8 -8 -9 -9 -9 -9 -8 -8 -8 -9 -9 -9 -9 -9 -6 -4 -4 -5 -6 -6 -7 -6 -5 -2 -3 -3 -2 -2 -1 1 3 4 5 6 7 7 7 7 8
-6 -7 -7 -7 -8 -8 -8 -9 -9 -9 -9 -9 -9 -9 -9 -9 -9 -9 -9 -9 -9 -8 -5 -4 -3 -6 -5 -5 -6 -6 -6 -4 -4 -3 -2 -2 -2 -1 0 2 4 5 5 5 4 5 6
-7 -7 -7 -8 -8 -8 -9 -9 -9 -9 -9 -9 -9 -9 -9 -10 -9 -9 -10 -10 -9 -6 -6 -5 -4 -4 -4 -4 -5 -5 -6 -5 -4 -3 -2 -2 -1 -1 0 0 2 3 3 2 4 5 8
-7 -7 -8 -8 -8 -9 -9 -10 -10 -10 -10 -10 -9 -9 -9 -10 -9 -10 -10 -10 -8 -7 -7 -7 -5 -4 -3 -3 -5 -6 -5 -5 -4 -3 -4 -2 -1 -1 -0 0 1 2 3 3 5 7 8
-7 -7 -8 -8 -8 -9 -9 -10 -10 -11 -11 -11 -10 -10 -11 -10 -10 -10 -11 -10 -9 -8 -7 -7 -7 -5 -5 -4 -5 -5 -6 -6 -5 -5 -4 -3 -3 -1 -0 -0 0 1 1 2 1 2 3
-8 -8 -8 -8 -9 -9 -10 -10 -11 -11 -11 -11 -11 -12 -11 -11 -10 -10 -10 -10 -9 -8 -8 -8 -7 -6 -6 -5 -6 -6 -6 -7 -7 -7 -6 -4 -3 -1 -1 -1 -0 -1 -0 0 1 1 6
-8 -8 -8 -9 -9 -9 -10 -10 -11 -11 -11 -12 -13 -12 -11 -11 -11 -10 -10 -10 -9 -9 -8 -8 -8 -8 -7 -6 -5 -5 -5 -6 -7 -8 -8 -7 -6 -3 -1 -1 -0 -0 -1 -1 0 0 3
-8 -8 -9 -9 -9 -10 -10 -10 -11 -12 -13 -13 -12 -12 -12 -12 -11 -11 -10 -10 -9 -9 -9 -8 -8 -8 -7 -7 -6 -5 -4 -5 -7 -8 -7 -7 -7 -5 0 -0 -1 -1 -2 -2 -1 1 2
-8 -8 -9 -9 -9 -10 -10 -11 -12 -12 -12 -13 -13 -12 -12 -11 -12 -11 -11 -10 -10 -9 -9 -9 -9 -8 -8 -7 -7 -6 -6 -7 -8 -8 -8 -8 -8 -7 -5 -6 -6 -6 -6 -5 -4 -2 0
-8 -9 -9 -9 -10 -10 -11 -12 -12 -12 -12 -13 -12 -12 -12 -12 -12 -12 -11 -11 -11 -10 -9 -9 -8 -9 -8 -7 -7 -7 -6 -6 -6 -7 -7 -8 -8 -7 -7 -7 -7 -6 -6 -6 -6 -5 -4
-9 -9 -9 -9 -10 -10 -12 -12 -12 -12 -13 -13 -13 -12 -12 -13 -12 -12 -12 -11 -11 -10 -10 -10 -9 -9 -8 -8 -7 -7 -7 -7 -7 -7 -7 -7 -7 -7 -7 -6 -6 -6 -5 -5 -5 -5 -4
-9 -9 -9 -9 -10 -11 -12 -13 -13 -13 -13 -13 -12 -13 -13 -12 -13 -12 -12 -11 -11 -10 -11 -10 -10 -10 -9 -8 -8 -9 -8 -8 -8 -8 -7 -7 -7 -7 -6 -6 -6 -6 -4 -4 -4 -4 -4
-8 -9 -9 -9 -10 -10 -12 -12 -13 -13 -13 -13 -12 -13 -13 -13 -13 -12 -12 -12 -11 -11 -11 -10 -10 -10 -9 -9 -9 -9 -8 -8 -8 -8 -7 -8 -8 -8 -7 -6 -6 -4 -3 -3 -2 -3 -3
-9 -9 -9 -9 -9 -10 -11 -11 -12 -13 -13 -13 -13 -13 -13 -12 -13 -13 -12 -12 -12 -11 -11 -10 -10 -10 -10 -10 -10 -9 -8 -8 -7 -7 -7 -7 -8 -7 -7 -5 -4 -3 -3 -2 -2 -1 -2
-9 -9 -9 -9 -9 -10 -10 -11 -12 -13 -13 -13 -13 -13 -13 -13 -13 -13 -12 -12 -12 -12 -12 -11 -11 -10 -10 -10 -10 -9 -7 -6 -7 -7 -7 -7 -7 -7 -6 -6 -4 -2 -1 -1 -2 -2 -1
-9 -9 -9 -9 -9 -10 -10 -11 -11 -12 -13 -13 -13 -13 -13 -13 -12 -13 -13 -13 -12 -12 -12 -11 -10 -10 -10 -10 -10 -9 -7 -6 -6 -6 -7 -7 -7 -7 -7 -6 -5 -2 -2 -3 -3 -3 -2
-9 -9 -9 -9 -10 -10 -10 -11 -11 -12 -13 -13 -13 -13 -14 -13 -12 -12 -13 -13 -13 -13 -12 -10 -11 -10 -10 -10 -9 -8 -7 -6 -6 -5 -5 -7 -7 -7 -7 -7 -5 1 -3 -3 -3 -3 -3
-9 -9 -9 -9 -10 -10 -11 -11 -11 -12 -13 -13 -14 -13 -13 -13 -12 -12 -12 -12 -12 -12 -12 -11 -11 -11 -9 -9 -8 -8 -8 -7 -6 -5 -5 -6 -6 -6 -6 -6 -4 -4 -4 -4 -4 -4 -4

GFSGBSN_700_temp_240.txt.gz
Temp
0 0 0 0 -0 0 -0 -0 -0 -0 -0 -1 -1 -2 -2 -2 -3 -3 -3 -2 -2 -2 -2 -2 -1 -0 -0 -1 3 2 2 4 4 6 6 6 6 6 5 6 7 8 9 9 10 11 11
-0 -0 -0 -0 -0 -0 -0 -1 -0 -1 -1 -2 -2 -2 -2 -3 -3 -3 -3 -3 -3 -3 -3 -3 -3 -2 -1 -1 1 2 3 4 5 4 5 6 6 6 6 6 7 8 9 10 10 11 11
-1 -0 -1 -1 -1 -1 -1 -1 -1 -2 -2 -2 -2 -3 -3 -4 -4 -4 -4 -4 -4 -4 -4 -4 -4 -3 -3 2 -1 1 2 3 4 5 3 5 5 4 5 6 7 7 9 9 10 10 11
-1 -1 -1 -2 -2 -2 -2 -2 -2 -2 -2 -3 -3 -3 -4 -4 -5 -5 -5 -5 -4 -4 -4 -4 -4 -4 -3 -0 1 -0 1 1 3 4 1 2 4 5 4 6 6 7 8 9 10 10 10
-2 -2 -2 -2 -2 -2 -3 -3 -3 -3 -3 -4 -4 -4 -5 -5 -5 -5 -5 -5 -5 -5 -5 -5 -5 -5 -3 -2 -0 -0 -1 -1 -0 3 2 1 2 3 4 5 6 7 8 9 9 10 10
-2 -2 -2 -3 -3 -3 -3 -3 -3 -3 -4 -4 -5 -5 -5 -6 -6 -6 -6 -6 -5 -6 -6 -6 -5 -6 -3 -4 -3 -1 -1 -1 -1 1 1 0 1 2 4 5 6 7 8 8 9 10 11
-3 -3 -3 -3 -4 -4 -4 -4 -4 -4 -5 -5 -6 -6 -6 -6 -6 -6 -6 -6 -6 -7 -6 -6 -7 -6 -3 -5 -6 -3 -1 -3 -2 -1 -1 1 1 2 4 5 6 7 9 9 9 10 11
-3 -3 -4 -4 -4 -4 -5 -5 -5 -5 -6 -6 -6 -6 -7 -7 -7 -7 -7 -7 -8 -8 -7 -6 -6 -5 -5 -5 -7 -4 -4 -5 -3 -2 -1 -1 -0 2 4 5 6 7 8 9 10 10 10
-4 -4 -4 -5 -5 -5 -5 -5 -6 -6 -6 -6 -6 -7 -7 -7 -7 -7 -8 -8 -9 -8 -8 -6 -4 -4 -3 -6 -6 -5 -7 -5 -3 -2 -1 -1 0 3 4 5 5 6 8 8 10 10 11
-4 -5 -5 -5 -5 -6 -6 -6 -6 -6 -7 -7 -7 -7 -8 -8 -8 -8 -9 -9 -10 -8 -9 -6 -4 -4 -5 -5 -6 -5 -6 -6 -4 -3 -2 -1 -1 1 2 4 6 7 7 8 9 9 10
-5 -5 -5 -5 -6 -6 -6 -7 -7 -7 -7 -7 -8 -8 -8 -9 -8 -8 -9 -8 -8 -9 -7 -4 -3 -4 -4 -5 -5 -5 -6 -7 -5 -3 -2 -2 -1 -1 2 3 5 6 8 8 8 9 10
-5 -5 -5 -6 -6 -6 -7 -7 -7 -8 -8 -8 -8 -8 -8 -9 -9 -9 -9 -8 -9 -9 -6 -4 -3 -5 -4 -5 -6 -6 -6 -6 -6 -5 -3 -3 -2 -1 -0 3 3 5 6 7 8 9 8
-6 -6 -6 -6 -6 -7 -7 -7 -8 -8 -8 -8 -8 -8 -8 -9 -9 -9 -9 -9 -9 -8 -5 -4 -5 -5 -5 -3 -3 -5 -6 -6 -6 -6 -4 -3 -2 -2 -1 -1 2 3 5 5 5 6 4
-6 -6 -6 -6 -7 -7 -7 -8 -8 -8 -8 -9 -9 -9 -9 -9 -9 -9 -9 -10 -9 -7 -6 -5 -6 -5 -3 -5 -5 -6 -5 -5 -5 -5 -4 -3 -2 -2 -2 -1 -1 0 2 3 2 3 5
-6 -6 -6 -7 -7 -7 -7 -8 -8 -9 -9 -9 -9 -9 -9 -9 -11 -10 -10 -11 -9 -7 -6 -7 -6 -5 -4 -4 -7 -7 -6 -6 -5 -6 -5 -3 -2 -2 -1 -1 -1 0 1 2 3 6 7
-6 -6 -7 -7 -7 -7 -8 -8 -8 -9 -9 -10 -9 -9 -10 -8 -10 -10 -11 -11 -9 -8 -8 -8 -8 -7 -5 -5 -6 -6 -5 -6 -7 -7 -7 -5 -3 -1 -1 -2 -1 -1 -0 0 1 1 3
-6 -7 -7 -7 -8 -8 -8 -8 -9 -9 -9 -10 -10 -10 -10 -10 -10 -10 -10 -10 -9 -8 -8 -8 -8 -6 -6 -6 -5 -5 -4 -5 -6 -6 -7 -7 -5 -2 -1 -1 -1 -1 -1 -0 -0 0 3
-7 -7 -7 -8 -8 -8 -8 -9 -9 -10 -10 -11 -12 -11 -11 -10 -11 -11 -10 -10 -9 -9 -9 -9 -8 -8 -7 -6 -5 -5 -6 -6 -7 -7 -7 -7 -7 -4 -2 -1 -1 -1 -1 -0 -1 -0 0
-7 -7 -8 -8 -8 -8 -9 -9 -9 -10 -11 -12 -12 -11 -10 -11 -10 -11 -10 -10 -9 -9 -9 -9 -8 -8 -7 -6 -6 -6 -6 -7 -7 -7 -7 -7 -7 -5 -0 -1 -2 -3 -5 -4 -1 -0 2
-7 -7 -8 -8 -9 -9 -9 -10 -10 -11 -11 -12 -12 -12 -11 -11 -11 -11 -11 -10 -10 -9 -9 -9 -9 -8 -8 -7 -7 -7 -6 -7 -7 -7 -7 -7 -6 -7 -6 -7 -7 -6 -6 -6 -4 -2 -0
-7 -7 -8 -8 -9 -9 -9 -10 -11 -11 -12 -13 -12 -12 -12 -12 -11 -11 -11 -11 -10 -10 -9 -9 -9 -8 -8 -8 -7 -7 -6 -7 -6 -7 -6 -7 -7 -7 -6 -7 -7 -7 -6 -6 -6 -5 -3
-7 -8 -8 -8 -9 -9 -10 -10 -11 -12 -12 -13 -12 -12 -12 -12 -12 -12 -11 -11 -11 -10 -10 -9 -10 -9 -9 -9 -9 -8 -7 -7 -7 -7 -7 -7 -7 -7 -7 -7 -7 -7 -6 -6 -6 -5 -3
-8 -8 -8 -9 -9 -9 -10 -10 -11 -12 -12 -13 -12 -12 -12 -11 -12 -12 -11 -11 -11 -11 -11 -10 -10 -10 -10 -9 -9 -9 -8 -7 -8 -7 -7 -7 -7 -7 -6 -6 -7 -7 -3 -3 -4 -4 -3
-8 -8 -8 -9 -9 -9 -10 -10 -11 -12 -13 -12 -12 -12 -12 -12 -12 -12 -11 -11 -11 -11 -11 -11 -11 -10 -10 -10 -9 -9 -9 -8 -8 -7 -7 -7 -7 -7 -7 -6 -6 -3 -3 -3 -2 -1 -1
-8 -8 -8 -9 -9 -9 -9 -10 -10 -11 -12 -12 -12 -13 -13 -12 -12 -12 -12 -11 -11 -11 -11 -11 -11 -10 -11 -10 -9 -9 -8 -8 -6 -6 -6 -7 -7 -7 -7 -5 -5 -4 -3 -2 -2 -1 -1
-8 -8 -8 -9 -9 -9 -9 -10 -10 -10 -11 -12 -12 -12 -13 -13 -12 -13 -12 -12 -12 -11 -11 -12 -11 -11 -10 -10 -10 -9 -8 -7 -6 -6 -6 -6 -7 -7 -6 -6 -5 -2 -1 -2 -2 -2 -1
-8 -8 -9 -9 -9 -9 -9 -10 -10 -11 -11 -12 -13 -13 -13 -13 -13 -12 -12 -12 -12 -12 -12 -12 -11 -11 -10 -10 -10 -9 -8 -7 -6 -6 -6 -6 -6 -7 -7 -6 -5 -4 -3 -3 -3 -2 -2
-8 -9 -9 -9 -9 -9 -9 -10 -10 -11 -11 -12 -12 -13 -13 -13 -12 -12 -12 -12 -12 -12 -12 -11 -12 -11 -10 -10 -9 -9 -8 -7 -7 -6 -6 -5 -7 -6 -6 -6 -5 -2 -3 -3 -3 -3 -3
-8 -9 -9 -9 -9 -9 -10 -10 -11 -11 -11 -12 -12 -13 -14 -14 -12 -12 -12 -12 -11 -11 -12 -12 -12 -11 -11 -11 -10 -9 -8 -8 -8 -7 -6 -6 -6 -6 -5 -4 -2 -3 -4 -4 -4 -4 -4

GFSGBSN_700_temp_243.txt.gz
Temp
1 0 0 0 0 0 0 0 0 0 0 0 0 -0 -0 -0 -0 -1 -1 -2 -2 -2 -2 -2 -2 -1 -1 1 3 0 1 1 3 5 5 5 5 5 5 6 6 6 7 7 8 9 10
-0 -0 -0 -0 -0 -0 -0 -0 -0 -0 -1 -0 -0 -0 -0 -1 -1 -1 -1 -2 -2 -3 -3 -3 -2 -2 -1 1 1 1 0 1 2 3 5 5 5 5 5 5 5 7 6 7 8 8 10
-1 -1 -1 -1 -1 -1 -1 -1 -1 -1 -1 -1 -1 -1 -1 -1 -2 -2 -2 -2 -3 -3 -4 -4 -3 -3 -2 1 -1 -1 -1 -0 1 2 3 5 5 3 5 5 6 6 6 7 7 8 9
-1 -1 -1 -2 -2 -2 -2 -2 -2 -2 -2 -2 -2 -2 -2 -2 -3 -3 -3 -3 -3 -4 -4 -5 -4 -4 -2 -1 -2 -2 -0 1 -0 -0 2 3 3 3 3 4 4 5 5 6 9 8 9
-2 -2 -2 -2 -2 -2 -2 -2 -2 -2 -2 -2 -3 -3 -3 -3 -4 -4 -4 -4 -4 -5 -5 -5 -5 -5 -3 -2 -2 -2 -2 -1 1 -1 -0 0 1 3 3 2 3 4 5 6 8 8 8
-2 -3 -3 -3 -3 -3 -3 -3 -3 -3 -3 -3 -3 -3 -4 -4 -5 -5 -5 -5 -5 -5 -5 -6 -6 -6 -3 -3 -3 -2 -2 -2 -2 -1 -1 0 0 1 1 2 2 3 4 5 6 9 8
-3 -3 -3 -3 -3 -3 -3 -3 -3 -3 -4 -4 -4 -4 -4 -5 -5 -6 -6 -5 -5 -5 -6 -7 -7 -7 -4 -3 -4 -3 -4 -3 -3 -3 -2 -1 -0 0 1 3 4 4 5 6 7 8 8
-3 -3 -3 -4 -4 -3 -4 -4 -4 -4 -4 -4 -5 -5 -5 -5 -6 -6 -7 -7 -8 -8 -7 -6 -5 -5 -4 -4 -4 -2 -6 -7 -7 -6 -4 -3 -2 -0 1 2 2 3 4 5 7 7 8
-4 -4 -4 -4 -4 -4 -4 -4 -4 -4 -5 -5 -6 -5 -6 -6 -6 -7 -7 -8 -9 -7 -9 -4 -4 -4 -3 -4 -4 -4 -7 -7 -7 -6 -5 -5 -1 -1 -1 1 2 3 4 5 6 7 8
-4 -4 -4 -4 -4 -4 -4 -5 -5 -5 -5 -6 -6 -6 -6 -6 -6 -7 -8 -7 -7 -8 -9 -4 -4 -4 -4 -5 -6 -6 -5 -6 -7 -7 -6 -4 -2 -2 -0 -1 2 3 4 5 6 7 8
-4 -5 -5 -5 -5 -5 -5 -5 -5 -6 -6 -6 -6 -6 -7 -7 -7 -7 -8 -7 -8 -9 -11 -4 -5 -6 -6 -6 -5 -4 -4 -5 -5 -6 -5 -4 -3 -2 -2 -1 0 3 4 5 6 7 7
-5 -5 -5 -5 -5 -5 -5 -5 -6 -6 -6 -7 -7 -7 -7 -7 -8 -8 -8 -8 -8 -9 -11 -5 -5 -6 -6 -6 -5 -6 -6 -6 -5 -6 -5 -5 -3 -2 -2 -1 1 1 2 5 5 5 6
-5 -5 -5 -6 -6 -6 -6 -6 -6 -6 -6 -7 -7 -7 -8 -8 -8 -8 -9 -9 -9 -10 -6 -5 -6 -6 -5 -6 -6 -6 -7 -6 -6 -6 -6 -4 -4 -3 -2 -2 -1 -1 -1 1 3 3 5
-5 -5 -6 -6 -6 -6 -6 -6 -7 -7 -7 -7 -7 -8 -8 -8 -8 -8 -10 -10 -10 -8 -7 -7 -7 -6 -6 -7 -7 -6 -6 -6 -7 -7 -6 -5 -4 -3 -2 -2 -2 -1 -1 0 2 3 3
-6 -6 -6 -6 -6 -6 -7 -7 -7 -7 -7 -7 -7 -7 -8 -8 -9 -9 -10 -11 -9 -8 -8 -8 -7 -7 -7 -6 -6 -7 -6 -6 -7 -6 -7 -7 -4 -2 -2 -1 -2 -1 -2 -0 -0 1 4
-6 -6 -6 -6 -7 -7 -7 -7 -7 -7 -8 -8 -8 -7 -8 -9 -10 -10 -10 -10 -10 -9 -9 -9 -8 -8 -8 -7 -6 -7 -5 -7 -6 -7 -6 -7 -7 -3 -2 -2 -2 -1 -1 -1 -1 1 1
-6 -6 -7 -7 -7 -7 -7 -7 -8 -8 -8 -8 -8 -8 -9 -10 -10 -10 -10 -10 -10 -9 -9 -9 -9 -9 -8 -8 -6 -7 -6 -7 -7 -7 -6 -6 -7 -4 -2 -2 -0 -0 -2 -1 -1 -0 1
-7 -7 -7 -7 -7 -7 -8 -8 -8 -8 -9 -9 -9 -9 -10 -10 -10 -11 -10 -10 -10 -9 -9 -9 -9 -8 -8 -8 -8 -7 -6 -7 -7 -7 -7 -7 -7 -7 -4 -2 -1 -2 -2 -2 -1 -1 1
-7 -7 -7 -7 -7 -8 -8 -8 -8 -9 -9 -10 -10 -10 -10 -10 -11 -11 -11 -10 -10 -10 -10 -9 -10 -9 -9 -9 -8 -7 -7 -7 -7 -7 -7 -7 -6 -7 -4 -3 -3 -4 -6 -5 -2 -1 -1
-7 -7 -7 -7 -8 -8 -8 -8 -9 -9 -10 -11 -11 -11 -10 -10 -11 -11 -11 -11 -10 -10 -10 -10 -9 -9 -9 -9 -8 -8 -7 -7 -7 -7 -6 -7 -7 -6 -7 -8 -7 -6 -6 -6 -5 -3 -1
-7 -7 -8 -8 -7 -8 -8 -9 -9 -10 -11 -11 -12 -12 -11 -11 -11 -11 -11 -11 -11 -11 -10 -10 -10 -10 -10 -10 -9 -8 -8 -7 -7 -7 -7 -7 -7 -6 -6 -7 -7 -7 -7 -6 -6 -5 -4
-7 -7 -8 -8 -8 -8 -9 -9 -9 -10 -12 -11 -12 -12 -12 -11 -12 -11 -11 -11 -11 -11 -11 -11 -10 -11 -10 -10 -10 -9 -9 -9 -8 -7 -7 -7 -7 -7 -7 -6 -7 -7 -6 -5 -5 -4 -5
-7 -7 -8 -8 -8 -8 -9 -9 -10 -10 -12 -12 -12 -12 -12 -12 -12 -12 -11 -11 -11 -11 -11 -11 -11 -11 -11 -10 -10 -10 -10 -9 -8 -8 -7 -8 -8 -7 -7 -6 -6 -6 -4 -3 -3 -3 -3
-7 -7 -8 -8 -8 -8 -9 -9 -9 -10 -12 -12 -12 -13 -13 -12 -12 -12 -12 -12 -12 -11 -12 -11 -11 -11 -11 -11 -11 -10 -9 -9 -8 -7 -7 -7 -8 -7 -7 -7 -9 -4 -3 -3 -2 -2 -2
-7 -8 -8 -8 -8 -9 -9 -9 -9 -10 -11 -12 -12 -13 -13 -12 -12 -12 -12 -12 -12 -12 -12 -12 -11 -11 -11 -11 -11 -10 -10 -8 -7 -6 -5 -6 -7 -7 -7 -7 -6 -4 -3 -3 -3 -3 -2
-7 -8 -8 -8 -8 -9 -9 -9 -9 -10 -10 -11 -11 -13 -13 -13 -12 -12 -13 -12 -13 -12 -11 -11 -11 -12 -11 -11 -11 -10 -10 -8 -8 -6 -6 -6 -7 -8 -7 -8 -8 -3 -3 -3 -4 -3 -2
-7 -8 -8 -8 -8 -9 -9 -9 -10 -10 -10 -11 -11 -12 -13 -13 -13 -13 -12 -13 -12 -12 -12 -12 -12 -11 -11 -11 -11 -10 -10 -9 -8 -7 -7 -6 -6 -7 -8 -7 -6 -4 -3 -3 -4 -3 -3
-7 -8 -8 -8 -9 -9 -9 -9 -10 -10 -11 -11 -11 -12 -14 -14 -13 -12 -12 -13 -13 -13 -13 -12 -12 -11 -11 -10 -11 -10 -9 -9 -8 -8 -7 -7 -7 -7 -7 -7 -8 -4 -4 -4 -4 -4 -3
-7 -8 -8 -9 -9 -9 -9 -10 -10 -10 -11 -12 -11 -13 -14 -15 -12 -12 -13 -13 -12 -12 -12 -12 -12 -12 -12 -12 -11 -11 -11 -10 -8 -9 -8 -7 -7 -7 -7 -5 -4 -5 -5 -4 -4 -4 -4

GFSGBSN_700_temp_246.txt.gz
Temp
1 1 1 1 0 0 0 0 0 1 1 1 1 1 1 1 1 1 1 1 0 1 1 1 2 2 2 3 3 1 -0 0 0 1 3 4 4 4 5 6 5 5 8 7 8 9 10
0 0 -0 -0 -0 -0 -0 -0 0 0 0 0 0 0 -0 -0 -0 -0 -0 -0 -0 -0 -0 0 1 1 2 3 1 0 0 -0 -1 -0 1 2 3 4 4 5 4 7 6 7 7 8 9
-0 -1 -1 -1 -1 -1 -1 -1 -0 -0 -0 -0 -1 -1 -1 -1 -1 -1 -1 -1 -1 -1 -1 -1 -0 -0 1 2 -0 -0 -0 -0 -1 -1 0 0 2 3 3 4 4 5 5 5 7 8 9
-1 -1 -1 -1 -1 -1 -1 -1 -1 -1 -1 -1 -2 -2 -2 -2 -2 -2 -2 -2 -2 -2 -1 -2 -2 -2 0 -0 -1 -1 -2 -2 -1 -0 -0 -0 -0 1 3 3 2 3 4 4 7 8 11
-1 -2 -2 -2 -2 -2 -2 -2 -2 -2 -2 -2 -2 -3 -3 -3 -3 -2 -2 -3 -3 -3 -3 -3 -3 -4 -1 -2 -3 -3 -3 -3 -2 -2 -0 -1 -1 -1 -0 1 1 2 3 4 7 7 9
-2 -2 -2 -2 -2 -2 -2 -2 -2 -3 -3 -3 -3 -3 -3 -4 -3 -3 -3 -3 -3 -3 -4 -4 -4 -3 -2 -3 -4 -4 -3 -3 -2 -2 -2 -1 -1 -1 -2 -2 -1 1 3 4 7 9 7
-2 -2 -2 -3 -3 -3 -3 -3 -3 -3 -3 -3 -3 -4 -4 -4 -4 -4 -4 -3 -4 -3 -4 -4 -4 -4 -3 -4 -5 -4 -4 -4 -4 -3 -2 -3 -2 -2 -1 -1 -1 1 3 4 8 6 6
-3 -3 -3 -3 -3 -3 -3 -3 -3 -4 -3 -4 -4 -4 -5 -5 -5 -5 -5 -4 -5 -6 -4 -3 -4 -4 -5 -6 -4 -3 -5 -5 -5 -4 -6 -6 -5 -2 -1 -2 -1 -1 1 3 5 5 5
-3 -3 -4 -4 -4 -4 -4 -4 -4 -4 -4 -4 -5 -5 -5 -6 -6 -6 -5 -6 -6 -7 -6 -4 -5 -4 -5 -5 -4 -4 -5 -5 -5 -6 -6 -7 -3 -4 -4 -1 -1 -1 0 2 4 5 5
-3 -4 -4 -4 -4 -4 -4 -4 -4 -4 -5 -5 -5 -5 -5 -6 -6 -6 -6 -6 -7 -8 -6 -5 -6 -6 -6 -7 -6 -7 -6 -6 -6 -5 -6 -7 -5 -4 -5 -3 -2 -1 0 1 3 4 5
-4 -4 -4 -5 -5 -5 -5 -4 -5 -5 -5 -5 -5 -6 -6 -6 -6 -6 -6 -7 -7 -8 -13 -5 -7 -7 -7 -7 -6 -6 -6 -6 -6 -6 -7 -6 -5 -5 -5 -3 -2 -2 -0 1 2 3 4
-4 -4 -5 -5 -5 -5 -5 -5 -5 -5 -5 -6 -6 -6 -6 -7 -7 -7 -7 -7 -7 -8 -12 -5 -7 -7 -6 -6 -6 -7 -6 -6 -7 -7 -6 -5 -5 -6 -4 -4 -3 -2 -2 -0 1 3 4
-5 -5 -5 -5 -5 -5 -6 -6 -6 -6 -6 -6 -6 -6 -7 -7 -7 -7 -8 -8 -8 -9 -7 -7 -7 -7 -7 -7 -6 -6 -6 -7 -7 -7 -6 -6 -4 -4 -5 -3 -3 -3 -2 -0 0 1 2
-5 -5 -5 -5 -5 -6 -6 -6 -6 -6 -6 -6 -6 -7 -7 -7 -7 -8 -8 -9 -9 -8 -8 -8 -8 -7 -7 -7 -7 -7 -6 -6 -6 -7 -7 -7 -5 -4 -3 -5 -2 -3 -2 -1 1 2 2
-5 -5 -5 -6 -6 -6 -6 -6 -7 -7 -7 -7 -7 -7 -7 -8 -8 -9 -9 -9 -9 -9 -9 -9 -8 -8 -8 -7 -8 -7 -6 -6 -7 -7 -8 -7 -6 -4 -5 -4 -3 -2 -1 -1 -1 -1 1
-6 -6 -6 -6 -6 -6 -6 -7 -7 -7 -7 -7 -7 -7 -7 -8 -9 -9 -10 -10 -9 -9 -9 -10 -9 -9 -9 -8 -8 -8 -7 -7 -7 -7 -7 -7 -8 -5 -4 -4 -4 -2 -2 -2 -1 -0 0
-6 -6 -6 -6 -6 -7 -7 -7 -7 -8 -8 -8 -8 -8 -8 -9 -10 -10 -11 -10 -10 -10 -10 -10 -10 -9 -9 -9 -9 -8 -7 -7 -7 -7 -7 -7 -8 -5 -5 -4 -3 -3 -3 -2 -2 -1 0
-6 -6 -6 -6 -7 -7 -7 -7 -8 -8 -8 -8 -8 -9 -9 -10 -10 -11 -11 -11 -11 -10 -10 -10 -10 -10 -10 -10 -10 -9 -8 -7 -8 -7 -7 -7 -8 -7 -5 -5 -4 -2 -2 -2 -2 -2 -1
-6 -6 -6 -6 -7 -7 -7 -8 -8 -8 -9 -9 -9 -9 -9 -11 -11 -11 -11 -11 -11 -10 -10 -10 -10 -10 -10 -9 -10 -8 -8 -8 -8 -8 -7 -7 -7 -8 -5 -6 -6 -6 -6 -6 -3 -2 -1
-6 -6 -7 -7 -7 -7 -7 -8 -8 -9 -9 -9 -10 -9 -10 -11 -11 -11 -11 -11 -11 -10 -10 -10 -11 -10 -10 -10 -9 -10 -9 -8 -8 -7 -7 -7 -7 -7 -8 -7 -8 -7 -7 -6 -6 -3 -2
-6 -7 -7 -7 -7 -8 -8 -8 -9 -9 -9 -9 -10 -11 -11 -10 -11 -12 -12 -12 -12 -11 -11 -11 -11 -11 -11 -11 -10 -10 -10 -9 -8 -8 -7 -7 -7 -7 -7 -7 -7 -7 -6 -7 -6 -6 -4
-6 -6 -7 -7 -7 -8 -8 -8 -8 -9 -10 -10 -11 -12 -11 -11 -11 -12 -12 -12 -12 -11 -12 -11 -12 -11 -11 -11 -11 -11 -11 -10 -10 -8 -9 -8 -7 -8 -7 -6 -6 -7 -6 -6 -6 -6 -6
-6 -6 -7 -7 -7 -8 -8 -9 -9 -9 -10 -10 -11 -12 -13 -11 -12 -12 -12 -12 -12 -12 -11 -12 -12 -12 -11 -11 -11 -11 -11 -10 -10 -9 -8 -9 -9 -8 -7 -7 -7 -6 -4 -4 -5 -4 -4
-6 -6 -7 -7 -7 -8 -8 -9 -9 -9 -10 -10 -11 -13 -13 -11 -12 -12 -12 -12 -12 -12 -13 -12 -12 -12 -11 -11 -11 -11 -11 -10 -9 -8 -8 -7 -7 -8 -8 -7 -11 -4 -4 -4 -4 -3 -4
-6 -6 -7 -7 -8 -8 -8 -9 -9 -10 -10 -10 -11 -12 -13 -12 -13 -12 -12 -13 -12 -12 -12 -13 -11 -12 -12 -12 -12 -11 -10 -10 -8 -7 -6 -6 -8 -9 -8 -7 -7 -4 -4 -4 -4 -3 -3
-6 -6 -7 -7 -8 -8 -9 -9 -9 -10 -10 -10 -11 -12 -14 -12 -12 -12 -12 -13 -13 -13 -12 -13 -12 -12 -12 -12 -12 -12 -11 -10 -9 -8 -6 -6 -7 -9 -8 -9 -12 -4 -4 -4 -4 -4 -3
-6 -6 -7 -7 -8 -8 -9 -9 -9 -10 -10 -10 -10 -12 -12 -12 -12 -12 -12 -13 -13 -13 -14 -13 -12 -11 -12 -11 -12 -11 -11 -10 -9 -8 -8 -7 -7 -8 -8 -8 -7 -5 -5 -5 -5 -4 -5
-6 -7 -7 -7 -8 -8 -9 -9 -9 -10 -10 -10 -10 -12 -12 -12 -11 -11 -12 -13 -13 -13 -13 -13 -13 -12 -12 -12 -12 -11 -11 -10 -10 -9 -9 -8 -8 -8 -8 -8 -8 -5 -5 -5 -5 -4 -4
-7 -7 -7 -7 -8 -8 -9 -9 -9 -10 -10 -11 -10 -13 -12 -13 -11 -11 -12 -13 -14 -13 -14 -13 -13 -13 -13 -12 -12 -12 -11 -12 -10 -10 -9 -9 -8 -8 -7 -6 -6 -6 -6 -5 -5 -5 -5

GFSGBSN_700_temp_249.txt.gz
Temp
1 1 1 1 1 1 1 1 1 1 1 1 1 1 1 2 2 2 2 2 2 2 3 3 3 3 3 4 3 2 2 2 1 1 3 2 3 2 4 4 4 5 7 6 6 7 9
0 0 0 0 1 1 0 0 0 0 0 0 1 1 1 1 1 1 1 1 1 1 2 2 2 3 3 3 1 1 1 0 0 -1 0 2 1 1 2 3 3 5 5 5 6 7 8
-0 0 0 0 -0 -0 -0 -0 -1 -0 -0 -0 0 0 1 1 1 1 0 0 1 1 1 1 1 1 2 2 -0 0 -0 -0 -1 -1 -1 -1 -1 -1 1 2 2 4 4 4 6 7 7
-0 -0 -0 -1 -1 -1 -1 -1 -1 -1 -1 -0 -0 -0 -0 -0 -0 -0 -1 -1 -1 -1 -1 -1 -1 -1 1 0 -0 -0 -0 -1 -2 -3 -1 -2 -2 -2 -1 -0 1 2 3 3 7 6 8
-1 -1 -1 -1 -2 -2 -2 -2 -2 -1 -1 -1 -1 -1 -1 -1 -1 -2 -1 -2 -2 -1 -1 -2 -1 -1 -1 -2 -3 -3 -3 -4 -4 -3 -3 -2 -2 -2 -2 -2 -2 -0 2 4 7 6 6
-1 -2 -2 -2 -2 -2 -2 -2 -2 -2 -2 -2 -2 -2 -2 -2 -2 -2 -2 -2 -2 -2 -2 -2 -2 -3 -3 -4 -4 -4 -4 -4 -4 -4 -3 -3 -3 -2 -2 -2 -2 -2 0 2 4 7 5
-2 -2 -2 -3 -3 -3 -3 -3 -3 -2 -2 -2 -2 -3 -3 -3 -3 -3 -3 -3 -3 -2 -3 -3 -4 -4 -5 -4 -4 -4 -4 -4 -4 -3 -4 -4 -4 -4 -1 -2 -1 -2 -1 1 4 3 4
-2 -3 -3 -3 -3 -3 -3 -3 -3 -3 -3 -3 -3 -3 -3 -4 -4 -4 -3 -4 -4 -4 -2 -4 -5 -5 -5 -4 -4 -6 -5 -5 -5 -5 -5 -5 -5 -3 -5 -3 -2 -2 -2 -1 3 2 3
-3 -3 -3 -3 -3 -4 -4 -4 -4 -4 -3 -4 -4 -4 -4 -4 -4 -5 -5 -5 -5 -6 -5 -5 -6 -6 -6 -6 -5 -6 -5 -5 -5 -5 -5 -6 -5 -5 -5 -4 -3 -2 -2 -1 -0 1 2
-3 -3 -4 -4 -4 -4 -4 -4 -4 -4 -4 -4 -5 -4 -4 -5 -5 -5 -5 -6 -6 -6 -7 -6 -6 -7 -7 -6 -6 -6 -6 -6 -6 -6 -6 -6 -5 -5 -5 -5 -4 -5 -2 -2 -1 -1 1
-4 -4 -4 -4 -4 -4 -4 -5 -5 -5 -5 -5 -5 -5 -5 -5 -5 -5 -6 -6 -7 -7 -13 -6 -7 -7 -7 -6 -6 -6 -6 -6 -6 -6 -7 -5 -6 -6 -6 -4 -5 -3 -4 -3 -1 -1 -0
-4 -4 -4 -4 -4 -5 -5 -5 -5 -5 -5 -5 -5 -5 -5 -6 -6 -6 -6 -7 -7 -8 -12 -7 -8 -7 -6 -6 -6 -6 -6 -6 -6 -6 -5 -5 -5 -7 -4 -5 -5 -5 -5 -4 -2 -1 -0
-4 -5 -5 -5 -5 -5 -5 -5 -5 -5 -5 -6 -6 -6 -6 -6 -6 -6 -7 -7 -8 -8 -7 -8 -8 -7 -7 -7 -7 -7 -6 -6 -7 -7 -6 -5 -4 -4 -4 -5 -5 -5 -5 -3 -2 -1 0
-5 -5 -5 -5 -5 -5 -5 -5 -6 -6 -6 -6 -6 -6 -6 -6 -6 -7 -8 -8 -8 -8 -8 -8 -8 -7 -8 -8 -7 -8 -7 -6 -7 -7 -8 -8 -6 -5 -6 -5 -5 -3 -4 -3 -2 0 1
-5 -5 -5 -5 -5 -5 -6 -6 -6 -6 -6 -6 -6 -6 -7 -7 -7 -8 -8 -9 -8 -9 -10 -10 -9 -9 -8 -8 -9 -8 -7 -7 -7 -7 -7 -8 -7 -6 -6 -6 -6 -4 -4 -2 -2 -2 -0
-5 -6 -6 -6 -6 -6 -6 -6 -6 -7 -7 -7 -7 -7 -7 -8 -9 -9 -9 -9 -9 -10 -10 -10 -10 -10 -10 -9 -9 -9 -8 -7 -7 -7 -8 -8 -7 -5 -5 -6 -5 -4 -3 -3 -3 -2 -0
-6 -6 -6 -6 -6 -6 -6 -7 -7 -7 -7 -7 -7 -8 -8 -8 -9 -10 -10 -10 -10 -10 -11 -10 -10 -10 -10 -10 -10 -10 -8 -8 -8 -8 -8 -8 -8 -6 -5 -7 -7 -6 -4 -3 -2 -1 0
-6 -6 -6 -6 -6 -6 -6 -7 -7 -7 -8 -7 -8 -9 -9 -10 -10 -10 -10 -11 -11 -10 -10 -11 -11 -10 -11 -11 -10 -10 -9 -9 -9 -9 -8 -8 -7 -8 -6 -6 -7 -7 -6 -6 -3 -2 -1
-6 -6 -6 -6 -6 -6 -7 -7 -7 -7 -8 -8 -8 -9 -9 -10 -10 -10 -11 -11 -11 -11 -11 -11 -11 -11 -11 -11 -11 -10 -10 -9 -9 -9 -9 -8 -8 -8 -6 -6 -7 -6 -7 -6 -7 -5 -2
-6 -6 -6 -6 -6 -6 -7 -7 -7 -7 -8 -8 -9 -9 -10 -10 -11 -11 -12 -11 -11 -11 -11 -11 -11 -11 -11 -11 -11 -11 -10 -10 -9 -9 -9 -8 -8 -8 -8 -7 -7 -7 -6 -7 -7 -7 -6
-6 -6 -6 -6 -7 -7 -7 -7 -7 -8 -8 -9 -9 -10 -10 -10 -11 -11 -12 -12 -12 -12 -11 -11 -11 -12 -12 -12 -11 -11 -11 -10 -9 -9 -9 -10 -9 -8 -8 -7 -7 -6 -7 -6 -7 -7 -7
-6 -6 -6 -6 -6 -7 -7 -7 -8 -8 -8 -9 -9 -10 -10 -10 -11 -11 -12 -12 -12 -12 -12 -12 -12 -12 -12 -12 -12 -12 -12 -11 -11 -9 -9 -10 -10 -9 -9 -7 -7 -7 -6 -5 -7 -7 -6
-6 -6 -6 -6 -7 -7 -7 -8 -8 -8 -8 -9 -10 -11 -12 -11 -11 -12 -11 -12 -12 -13 -12 -12 -13 -13 -12 -11 -12 -12 -11 -11 -11 -11 -10 -10 -10 -9 -9 -8 -8 -6 -5 -5 -5 -6 -6
-6 -6 -6 -6 -7 -7 -8 -8 -8 -8 -8 -9 -10 -11 -12 -10 -11 -11 -12 -12 -12 -12 -13 -12 -12 -13 -12 -12 -12 -12 -11 -11 -10 -10 -10 -9 -9 -10 -10 -9 -13 -5 -5 -5 -4 -5 -5
-6 -6 -6 -6 -7 -7 -8 -8 -8 -9 -9 -10 -10 -11 -12 -11 -10 -11 -11 -13 -13 -13 -13 -13 -13 -13 -12 -12 -12 -12 -11 -10 -9 -9 -8 -8 -9 -10 -9 -8 -8 -5 -5 -5 -5 -5 -5
-6 -6 -6 -7 -7 -7 -8 -8 -8 -9 -10 -10 -10 -11 -12 -11 -9 -11 -12 -12 -13 -13 -13 -13 -13 -13 -13 -13 -12 -13 -12 -11 -10 -9 -8 -7 -8 -10 -9 -10 -12 -5 -5 -6 -5 -5 -6
-6 -6 -6 -7 -7 -8 -8 -8 -9 -9 -10 -10 -10 -12 -12 -12 -10 -11 -11 -13 -13 -14 -15 -14 -13 -12 -12 -12 -12 -13 -12 -11 -11 -10 -9 -9 -9 -9 -8 -9 -8 -7 -6 -6 -5 -7 -6
-6 -7 -7 -7 -7 -8 -8 -9 -9 -9 -10 -10 -10 -11 -12 -12 -10 -10 -11 -12 -13 -13 -14 -13 -14 -13 -13 -13 -12 -12 -12 -11 -11 -10 -10 -9 -8 -9 -9 -9 -10 -7 -6 -6 -7 -6 -7
-7 -7 -7 -7 -7 -8 -8 -9 -9 -9 -10 -10 -10 -11 -12 -12 -10 -11 -10 -11 -11 -12 -14 -15 -14 -13 -13 -13 -13 -13 -13 -12 -11 -11 -10 -10 -9 -9 -9 -8 -7 -7 -7 -7 -7 -7 -7

GFSGBSN_700_temp_252.txt.gz
Temp
0 0 1 1 1 1 2 2 2 2 2 2 2 2 2 2 2 2 2 2 2 3 3 3 3 3 3 2 2 2 2 2 3 2 2 3 3 3 3 3 3 4 6 5 5 6 5
-0 0 0 1 1 1 1 1 1 1 1 1 1 1 1 1 1 1 1 2 2 2 2 2 3 3 3 2 1 1 1 1 1 1 1 1 2 2 2 2 2 4 4 4 4 5 4
-1 -0 -0 0 0 0 0 0 0 0 0 1 0 0 1 1 1 1 1 1 1 2 2 2 2 2 2 1 1 0 1 0 -0 -0 -0 -1 -1 1 1 1 1 2 3 4 5 5 4
-1 -1 -0 -1 -1 -1 -1 -0 -0 0 0 -0 -0 -0 0 0 0 1 1 1 1 1 1 1 1 1 1 -0 -0 -0 -1 -1 -1 -2 -2 -2 -2 -1 -0 -1 -1 -0 1 2 7 4 3
-1 -1 -1 -1 -1 -1 -1 -1 -1 -1 -1 -1 -1 -0 -0 -0 -0 0 -0 -0 0 1 0 0 0 -0 -1 -2 -2 -2 -2 -2 -3 -3 -4 -4 -3 -3 -2 -2 -3 -2 -1 2 5 3 2
-1 -1 -1 -1 -1 -1 -1 -1 -1 -2 -2 -1 -1 -1 -2 -1 -1 -0 -1 -1 -0 -0 -1 -1 -1 -1 -3 -3 -3 -3 -3 -3 -4 -4 -5 -4 -4 -3 -3 -3 -4 -3 -3 -1 1 1 2
-1 -1 -2 -2 -2 -2 -2 -2 -2 -2 -2 -2 -2 -2 -2 -1 -1 -1 -1 -1 -2 -1 -2 -3 -3 -3 -4 -4 -4 -4 -4 -4 -4 -4 -5 -4 -4 -4 -4 -4 -3 -3 -3 -2 2 -1 0
-2 -2 -2 -2 -3 -3 -3 -3 -3 -3 -3 -3 -3 -3 -2 -2 -2 -2 -2 -2 -3 -3 -2 -3 -5 -6 -6 -5 -5 -5 -5 -5 -5 -5 -5 -5 -5 -5 -5 -4 -5 -5 -4 -3 -0 -2 -1
-2 -3 -3 -3 -3 -3 -3 -3 -3 -3 -3 -3 -3 -3 -3 -3 -3 -3 -4 -4 -4 -5 -4 -5 -6 -6 -6 -5 -6 -6 -5 -5 -5 -5 -5 -6 -5 -5 -5 -5 -5 -5 -5 -4 -3 -3 -2
-3 -3 -3 -3 -3 -4 -4 -4 -4 -4 -4 -4 -4 -3 -3 -4 -4 -4 -5 -5 -5 -6 -5 -6 -7 -7 -7 -6 -6 -6 -6 -6 -6 -6 -5 -5 -4 -4 -5 -5 -5 -6 -3 -4 -4 -3 -2
-3 -3 -3 -4 -4 -4 -4 -4 -4 -4 -4 -5 -4 -4 -4 -4 -4 -5 -5 -6 -6 -6 -12 -7 -7 -7 -7 -7 -6 -6 -6 -6 -6 -6 -7 -5 -5 -6 -5 -4 -6 -4 -5 -4 -5 -4 -4
-4 -4 -4 -4 -4 -4 -4 -4 -4 -5 -5 -5 -5 -5 -4 -5 -5 -6 -6 -6 -6 -6 -11 -7 -8 -7 -7 -7 -7 -7 -6 -6 -6 -6 -5 -5 -5 -6 -5 -6 -7 -6 -6 -6 -6 -5 -4
-4 -4 -4 -4 -4 -5 -5 -5 -5 -5 -5 -5 -5 -5 -5 -5 -6 -6 -6 -7 -7 -7 -7 -8 -8 -8 -7 -8 -8 -7 -7 -6 -7 -7 -6 -5 -5 -5 -5 -6 -6 -7 -6 -6 -7 -5 -4
-5 -4 -5 -5 -5 -5 -5 -5 -5 -5 -5 -5 -5 -5 -5 -6 -6 -6 -7 -8 -8 -8 -8 -8 -8 -8 -8 -9 -8 -7 -7 -7 -7 -7 -7 -8 -7 -6 -6 -6 -6 -6 -6 -6 -9 -4 -2
-5 -5 -5 -5 -5 -5 -5 -5 -5 -5 -5 -6 -6 -6 -6 -6 -6 -7 -8 -8 -8 -9 -10 -10 -9 -9 -9 -9 -9 -9 -8 -7 -8 -8 -8 -8 -7 -6 -6 -6 -7 -6 -5 -4 -5 -3 -4
-5 -5 -5 -5 -5 -5 -5 -5 -6 -6 -6 -6 -6 -6 -7 -7 -7 -8 -8 -9 -9 -10 -10 -10 -10 -10 -10 -10 -10 -10 -8 -9 -9 -9 -8 -8 -8 -6 -6 -6 -7 -7 -7 -5 -5 -5 -6
-5 -5 -5 -5 -6 -6 -6 -6 -6 -6 -6 -6 -6 -7 -7 -7 -8 -9 -9 -10 -10 -10 -11 -11 -11 -11 -10 -11 -10 -10 -9 -9 -10 -9 -9 -8 -8 -7 -6 -6 -7 -6 -7 -7 -6 -4 -6
-5 -5 -5 -6 -6 -6 -6 -6 -6 -6 -6 -6 -7 -8 -8 -8 -9 -9 -10 -10 -10 -10 -11 -11 -11 -11 -11 -11 -11 -11 -10 -10 -10 -10 -10 -9 -8 -8 -7 -6 -6 -6 -7 -7 -7 -6 -7
-5 -5 -6 -6 -6 -6 -6 -7 -6 -7 -7 -7 -7 -8 -8 -8 -9 -10 -10 -10 -11 -11 -11 -11 -11 -11 -11 -12 -12 -11 -11 -10 -10 -10 -10 -10 -9 -8 -7 -7 -7 -7 -7 -7 -7 -7 -6
-5 -5 -6 -6 -6 -6 -7 -7 -7 -7 -7 -7 -7 -8 -8 -9 -9 -10 -11 -11 -11 -11 -11 -11 -12 -12 -12 -12 -11 -12 -11 -11 -11 -11 -10 -10 -10 -10 -9 -9 -9 -8 -7 -7 -8 -8 -7
-5 -6 -6 -6 -6 -6 -7 -7 -7 -7 -7 -8 -8 -8 -9 -9 -10 -11 -11 -11 -11 -12 -11 -12 -12 -12 -12 -12 -12 -12 -12 -11 -11 -10 -11 -11 -11 -10 -9 -9 -7 -7 -7 -6 -7 -7 -8
-5 -6 -6 -6 -6 -6 -7 -8 -8 -8 -7 -8 -9 -9 -9 -9 -10 -11 -11 -10 -11 -12 -12 -12 -12 -12 -12 -13 -12 -13 -12 -12 -11 -11 -11 -11 -12 -11 -10 -9 -8 -8 -6 -6 -6 -6 -7
-5 -5 -6 -6 -6 -7 -7 -8 -8 -8 -8 -8 -9 -10 -10 -10 -10 -11 -10 -11 -12 -13 -12 -12 -13 -13 -13 -12 -13 -12 -12 -11 -11 -11 -10 -12 -12 -11 -11 -10 -9 -7 -6 -6 -6 -6 -6
-5 -5 -6 -6 -6 -7 -7 -8 -8 -9 -9 -9 -9 -10 -11 -10 -10 -11 -11 -11 -12 -12 -13 -12 -13 -13 -13 -13 -13 -12 -12 -11 -10 -10 -10 -11 -12 -12 -11 -10 -14 -6 -6 -6 -6 -7 -6
-5 -5 -6 -6 -6 -7 -7 -8 -8 -9 -9 -9 -10 -11 -12 -11 -10 -10 -11 -11 -12 -12 -12 -13 -12 -13 -13 -13 -13 -12 -11 -10 -10 -9 -10 -10 -11 -12 -11 -9 -9 -6 -7 -7 -7 -6 -7
-5 -5 -6 -6 -6 -7 -7 -8 -8 -9 -9 -9 -10 -11 -12 -12 -9 -11 -11 -11 -12 -13 -12 -12 -13 -14 -14 -14 -14 -13 -13 -12 -11 -10 -10 -10 -10 -11 -10 -10 -12 -6 -6 -6 -7 -7 -7
-5 -6 -6 -6 -6 -7 -7 -7 -8 -9 -10 -10 -10 -11 -12 -11 -10 -11 -11 -12 -12 -12 -13 -13 -13 -13 -14 -14 -13 -13 -13 -12 -11 -11 -10 -11 -10 -11 -11 -10 -9 -7 -7 -7 -7 -7 -7
-6 -6 -6 -6 -7 -7 -7 -8 -8 -9 -10 -10 -10 -11 -12 -11 -10 -10 -11 -11 -12 -13 -14 -14 -15 -13 -13 -13 -13 -13 -12 -12 -12 -11 -11 -11 -10 -10 -10 -10 -10 -8 -8 -8 -8 -7 -8
-6 -6 -6 -7 -7 -7 -7 -8 -8 -9 -10 -10 -9 -11 -11 -11 -9 -10 -10 -11 -10 -11 -12 -13 -14 -13 -13 -13 -13 -13 -13 -13 -12 -12 -10 -10 -10 -10 -9 -9 -8 -8 -9 -9 -8 -8 -8

GFSGBSN_700_temp_255.txt.gz
Temp
1 0 1 0 1 1 1 1 1 2 2 2 2 2 3 3 3 3 3 3 3 3 3 3 3 3 3 2 2 3 3 3 3 2 2 2 3 3 4 4 4 4 6 4 4 5 4
0 0 0 -0 0 1 1 1 1 1 1 1 1 2 2 2 2 2 2 3 3 3 3 3 3 3 3 2 2 2 2 1 1 2 1 1 1 2 3 3 3 4 4 4 4 4 4
-0 -0 -0 -0 -0 0 1 1 1 1 1 1 1 1 1 1 2 2 2 2 2 2 2 2 2 2 2 2 1 2 1 1 1 0 1 0 0 -0 1 2 2 3 3 3 4 4 3
-0 -1 -1 -1 -1 -0 0 0 0 -0 -0 -0 -0 0 0 1 1 1 1 2 2 2 2 1 1 1 1 1 1 0 -0 -0 -1 -1 -1 -1 -1 -1 -2 -1 -0 -0 0 2 5 3 2
-0 -0 -1 -1 -1 -1 -0 -1 -1 -1 -1 -1 -1 -0 -0 0 1 1 1 1 1 1 1 1 1 1 -0 -1 -1 -1 -2 -2 -2 -2 -3 -3 -3 -3 -3 -3 -3 -2 -2 -0 1 2 1
-0 -1 -1 -1 -2 -1 -1 -1 -1 -1 -1 -1 -1 -1 -0 0 1 1 0 1 1 0 0 -0 -0 -1 -2 -2 -3 -3 -3 -3 -3 -3 -4 -5 -4 -4 -4 -4 -4 -3 -3 -2 -2 -1 0
-0 -1 -1 -2 -2 -2 -1 -2 -2 -2 -2 -2 -1 -1 -1 -0 -0 0 -0 -0 -1 -0 -1 -1 -2 -2 -3 -4 -5 -5 -5 -5 -5 -5 -5 -5 -5 -5 -4 -4 -4 -4 -4 -4 -2 -3 -2
-1 -1 -1 -2 -2 -2 -2 -2 -2 -2 -2 -2 -2 -2 -2 -1 -1 -0 -0 -1 -1 -2 -2 -2 -3 -5 -5 -5 -5 -6 -5 -5 -5 -5 -5 -5 -5 -4 -4 -4 -5 -5 -5 -4 -2 -3 -3
-1 -1 -2 -2 -2 -3 -3 -3 -3 -3 -3 -2 -2 -2 -2 -2 -1 -2 -2 -2 -2 -3 -3 -5 -6 -6 -6 -6 -6 -6 -6 -6 -6 -5 -5 -5 -4 -5 -5 -5 -6 -5 -6 -4 -4 -5 -4
-1 -1 -2 -2 -3 -3 -3 -3 -3 -3 -3 -3 -2 -2 -2 -2 -2 -3 -3 -3 -4 -4 -5 -6 -7 -7 -7 -6 -6 -6 -6 -6 -6 -6 -5 -5 -5 -5 -5 -6 -6 -6 -5 -5 -6 -6 -4
-2 -2 -2 -2 -3 -4 -4 -4 -4 -3 -3 -3 -3 -3 -3 -3 -3 -3 -3 -4 -4 -4 -6 -6 -7 -7 -7 -7 -7 -7 -7 -7 -6 -6 -6 -5 -5 -5 -5 -5 -7 -7 -6 -7 -7 -6 -6
-2 -2 -2 -3 -3 -4 -4 -4 -4 -4 -4 -4 -3 -3 -3 -3 -3 -4 -4 -4 -5 -5 -8 -7 -7 -7 -7 -7 -7 -7 -7 -7 -7 -7 -6 -5 -5 -5 -5 -5 -6 -7 -7 -7 -6 -6 -5
-2 -2 -2 -3 -3 -4 -4 -4 -4 -4 -4 -4 -3 -3 -3 -4 -4 -4 -4 -5 -5 -6 -7 -7 -7 -7 -8 -8 -8 -8 -7 -7 -8 -8 -7 -6 -5 -5 -5 -6 -6 -7 -7 -5 -5 -5 -4
-2 -2 -3 -3 -4 -4 -5 -5 -5 -4 -4 -4 -4 -4 -4 -4 -4 -5 -5 -5 -6 -7 -7 -8 -8 -8 -9 -9 -9 -8 -8 -8 -9 -8 -8 -8 -6 -5 -6 -6 -7 -7 -7 -6 -5 -4 -2
-3 -2 -3 -3 -4 -4 -5 -5 -5 -5 -5 -5 -4 -4 -5 -5 -5 -5 -6 -6 -7 -8 -9 -9 -9 -9 -9 -9 -10 -9 -9 -9 -9 -9 -10 -8 -8 -7 -6 -6 -7 -7 -7 -7 -6 -6 -5
-3 -3 -3 -4 -4 -4 -5 -5 -5 -5 -5 -5 -5 -5 -5 -5 -5 -6 -7 -7 -8 -9 -10 -10 -10 -10 -11 -10 -10 -10 -9 -9 -10 -10 -10 -10 -10 -7 -6 -7 -7 -7 -7 -7 -6 -4 -4
-3 -3 -3 -4 -4 -4 -5 -5 -5 -5 -5 -5 -5 -6 -6 -6 -6 -7 -8 -8 -9 -10 -10 -11 -11 -11 -11 -11 -11 -11 -10 -10 -10 -10 -10 -10 -10 -8 -8 -7 -7 -8 -8 -8 -7 -7 -5
-3 -4 -3 -4 -4 -4 -5 -5 -5 -5 -5 -5 -6 -6 -6 -7 -7 -8 -9 -9 -9 -10 -11 -11 -11 -11 -11 -11 -12 -11 -11 -11 -10 -11 -10 -11 -10 -9 -8 -7 -7 -7 -8 -8 -7 -7 -7
-3 -3 -4 -4 -4 -4 -5 -5 -5 -5 -5 -6 -6 -7 -7 -7 -7 -8 -9 -9 -10 -10 -11 -11 -11 -11 -12 -12 -12 -12 -11 -11 -11 -11 -11 -11 -10 -10 -8 -7 -8 -9 -9 -8 -9 -8 -7
-4 -3 -4 -4 -4 -4 -5 -5 -5 -6 -6 -6 -6 -7 -7 -8 -8 -8 -9 -9 -10 -11 -11 -11 -12 -12 -12 -12 -12 -12 -12 -12 -11 -11 -11 -11 -11 -11 -11 -11 -10 -10 -9 -8 -9 -8 -8
-4 -4 -4 -3 -4 -5 -5 -5 -5 -5 -6 -6 -7 -7 -8 -8 -9 -9 -10 -10 -10 -11 -11 -12 -12 -12 -12 -13 -13 -13 -13 -12 -11 -11 -11 -12 -12 -11 -11 -11 -10 -9 -9 -7 -8 -7 -9
-4 -4 -5 -4 -5 -5 -5 -5 -6 -6 -6 -7 -7 -8 -8 -9 -9 -10 -10 -10 -11 -11 -12 -12 -13 -13 -13 -13 -13 -13 -13 -12 -13 -11 -11 -12 -13 -12 -12 -11 -10 -10 -8 -7 -7 -7 -6
-4 -4 -5 -4 -5 -5 -5 -5 -6 -6 -7 -7 -8 -8 -8 -9 -9 -10 -10 -11 -11 -12 -12 -12 -13 -13 -13 -13 -13 -13 -13 -12 -12 -12 -10 -13 -13 -13 -12 -11 -11 -9 -6 -7 -7 -7 -7
-5 -4 -4 -5 -5 -5 -5 -5 -6 -7 -7 -7 -8 -8 -9 -8 -9 -10 -10 -11 -11 -11 -12 -12 -12 -13 -13 -14 -13 -12 -12 -11 -11 -10 -11 -12 -12 -12 -12 -12 -10 -7 -7 -7 -8 -8 -7
-5 -5 -5 -5 -5 -5 -6 -6 -6 -7 -7 -8 -8 -9 -9 -9 -9 -9 -11 -11 -11 -11 -12 -12 -12 -13 -14 -14 -14 -13 -11 -10 -10 -11 -11 -11 -12 -12 -12 -11 -9 -7 -8 -8 -8 -8 -8
-5 -5 -5 -5 -5 -5 -6 -6 -6 -7 -8 -8 -9 -10 -10 -10 -8 -10 -10 -11 -11 -12 -11 -12 -12 -13 -14 -14 -14 -14 -13 -12 -10 -11 -10 -11 -11 -13 -12 -11 -10 -7 -8 -8 -7 -7 -7
-5 -5 -5 -5 -5 -6 -6 -6 -7 -7 -9 -9 -8 -10 -12 -10 -10 -10 -10 -11 -11 -12 -13 -12 -12 -12 -13 -13 -14 -14 -13 -12 -12 -11 -11 -11 -12 -12 -12 -11 -10 -8 -9 -8 -8 -8 -8
-6 -5 -6 -6 -6 -6 -6 -6 -7 -7 -9 -9 -9 -10 -11 -10 -9 -9 -10 -10 -12 -12 -12 -13 -13 -13 -13 -13 -14 -13 -13 -12 -12 -11 -11 -11 -11 -11 -11 -11 -10 -9 -9 -9 -10 -8 -8
-6 -6 -6 -6 -6 -6 -6 -6 -7 -8 -9 -9 -9 -10 -11 -11 -9 -10 -10 -11 -10 -11 -12 -11 -12 -13 -13 -14 -13 -13 -13 -13 -12 -12 -10 -11 -11 -11 -10 -10 -10 -10 -9 -9 -9 -9 -8

GFSGBSN_700_temp_258.txt.gz
Temp
2 2 1 1 1 2 2 1 1 1 2 2 2 2 3 3 3 3 3 3 3 3 3 3 3 3 3 3 4 3 3 3 4 3 3 3 3 3 3 3 3 4 5 3 3 3 3
1 1 1 1 2 2 1 1 1 1 1 1 1 2 2 2 2 2 2 3 3 3 3 3 3 3 3 2 2 3 3 3 3 3 2 2 2 1 2 2 3 3 4 3 2 1 2
1 1 1 1 1 2 1 1 1 1 1 1 1 1 1 1 1 1 2 2 2 2 2 2 2 2 2 2 2 2 1 1 1 1 0 1 0 -0 -1 0 1 2 3 3 2 2 1
1 1 0 0 -0 0 1 1 0 -0 -0 -0 -0 0 1 1 1 1 1 1 1 2 2 2 2 2 1 1 1 1 1 0 -0 -1 -1 -1 -2 -1 -1 -2 -1 -1 -0 1 3 4 3
0 0 0 0 0 1 0 0 -0 -0 -1 -1 -1 -0 0 0 0 1 1 1 1 2 2 2 1 1 1 -0 -1 -1 -2 -2 -3 -2 -2 -3 -3 -3 -4 -3 -2 -0 0 2 3 3 2
0 -0 -0 0 0 0 -0 -1 -1 -1 -1 -1 -1 -1 -0 -0 0 0 1 1 1 1 1 1 0 0 -1 -1 -2 -3 -3 -3 -3 -4 -4 -4 -5 -5 -4 -3 -1 1 1 1 1 2 1
-0 -1 -0 -1 -0 -0 -0 -1 -1 -1 -1 -1 -2 -1 -1 -0 0 0 1 1 1 1 0 0 -1 -1 -2 -3 -4 -4 -4 -5 -4 -4 -5 -5 -5 -4 -3 -3 -3 -3 -2 -2 -1 -0 -0
-1 -1 -1 -1 -1 -1 -0 -1 -2 -2 -2 -2 -2 -1 -1 -0 0 1 1 1 1 -0 -1 -1 -2 -3 -3 -4 -5 -5 -5 -5 -5 -5 -5 -5 -5 -5 -5 -5 -5 -4 -4 -3 -2 -1 -1
-1 -1 -1 -1 -1 -1 -1 -1 -2 -2 -2 -2 -2 -1 -1 -0 0 0 0 0 -0 -0 -2 -3 -4 -4 -4 -5 -5 -6 -6 -6 -5 -5 -6 -6 -5 -5 -5 -5 -5 -4 -4 -3 -3 -3 -3
-2 -2 -2 -2 -2 -1 -1 -1 -1 -2 -2 -1 -2 -2 -1 -1 -1 -0 -0 -1 -1 -1 -3 -5 -5 -6 -6 -6 -6 -6 -6 -6 -7 -7 -7 -6 -5 -5 -6 -6 -6 -5 -4 -4 -4 -4 -2
-2 -2 -2 -2 -2 -1 -2 -1 -2 -2 -2 -1 -2 -2 -2 -1 -1 -1 -1 -1 -2 -2 -2 -6 -6 -6 -6 -7 -7 -7 -7 -7 -7 -7 -7 -6 -6 -6 -5 -5 -6 -5 -5 -5 -5 -4 -3
-2 -2 -2 -3 -2 -2 -2 -2 -2 -2 -2 -1 -2 -2 -2 -2 -2 -2 -2 -2 -2 -3 -5 -6 -5 -6 -7 -7 -8 -8 -7 -7 -7 -7 -7 -7 -6 -5 -5 -5 -6 -6 -6 -5 -5 -4 -3
-3 -2 -2 -3 -3 -2 -2 -2 -2 -2 -2 -2 -2 -2 -2 -2 -2 -2 -3 -3 -4 -4 -5 -7 -6 -7 -8 -8 -8 -8 -8 -8 -8 -8 -6 -6 -5 -6 -5 -6 -5 -5 -5 -4 -2 -3 -1
-2 -2 -2 -3 -3 -3 -2 -2 -2 -2 -2 -2 -3 -3 -3 -3 -2 -3 -3 -4 -5 -6 -6 -6 -7 -8 -8 -9 -9 -9 -8 -8 -8 -9 -8 -7 -6 -6 -7 -7 -6 -6 -6 -5 -4 -1 1
-3 -3 -3 -3 -3 -3 -3 -3 -3 -3 -3 -2 -3 -3 -3 -3 -3 -3 -4 -4 -6 -7 -6 -7 -8 -8 -8 -9 -10 -9 -9 -9 -9 -10 -10 -8 -7 -7 -7 -6 -6 -6 -6 -6 -6 -4 -3
-3 -3 -3 -3 -3 -3 -3 -3 -3 -3 -3 -3 -3 -3 -3 -3 -4 -4 -5 -6 -7 -7 -7 -9 -9 -9 -8 -8 -9 -9 -9 -9 -10 -10 -11 -10 -9 -7 -7 -7 -6 -7 -7 -6 -6 -4 -4
-3 -3 -3 -3 -4 -3 -3 -3 -3 -3 -3 -3 -3 -4 -4 -4 -4 -5 -6 -7 -7 -7 -8 -9 -10 -10 -9 -10 -10 -9 -9 -9 -11 -11 -11 -11 -10 -8 -7 -7 -7 -7 -7 -7 -7 -6 -5
-2 -3 -3 -4 -3 -4 -3 -4 -3 -3 -3 -3 -4 -4 -4 -5 -5 -6 -6 -7 -7 -8 -9 -10 -10 -11 -10 -10 -10 -10 -10 -10 -10 -11 -11 -11 -11 -10 -8 -7 -7 -8 -8 -8 -8 -6 -6
-3 -3 -3 -4 -4 -4 -4 -4 -4 -4 -3 -3 -4 -5 -5 -5 -6 -6 -7 -8 -8 -9 -9 -11 -11 -11 -11 -11 -10 -10 -10 -10 -11 -11 -11 -12 -10 -10 -7 -6 -8 -9 -10 -9 -10 -9 -7
-3 -3 -3 -4 -4 -4 -4 -4 -4 -4 -4 -4 -4 -5 -5 -6 -6 -7 -8 -9 -9 -9 -10 -10 -11 -11 -11 -11 -11 -11 -10 -11 -12 -12 -12 -12 -11 -11 -9 -9 -11 -10 -10 -10 -10 -9 -7
-3 -3 -3 -4 -4 -5 -5 -4 -4 -4 -4 -4 -4 -5 -6 -6 -6 -7 -8 -9 -9 -11 -10 -10 -12 -11 -11 -12 -11 -11 -11 -11 -12 -12 -12 -12 -11 -11 -11 -11 -10 -10 -10 -9 -9 -9 -9
-3 -4 -4 -4 -4 -4 -5 -4 -4 -5 -5 -5 -5 -5 -6 -6 -7 -8 -9 -9 -10 -11 -11 -12 -12 -12 -12 -12 -12 -13 -12 -12 -12 -12 -12 -12 -12 -11 -11 -10 -10 -9 -9 -8 -7 -7 -7
-3 -4 -4 -4 -4 -5 -5 -5 -5 -5 -5 -5 -5 -5 -6 -7 -7 -8 -9 -10 -11 -10 -11 -11 -13 -13 -13 -13 -13 -13 -13 -11 -12 -13 -12 -12 -12 -12 -11 -10 -10 -10 -8 -7 -6 -6 -6
-4 -4 -4 -5 -5 -5 -5 -5 -5 -5 -5 -6 -6 -6 -6 -7 -8 -8 -9 -10 -10 -12 -12 -12 -13 -13 -13 -13 -12 -11 -11 -10 -11 -11 -12 -11 -12 -12 -11 -11 -9 -8 -7 -7 -7 -6 -8
-4 -4 -4 -5 -5 -5 -5 -5 -5 -5 -6 -6 -6 -6 -6 -7 -7 -8 -9 -9 -10 -10 -10 -12 -11 -11 -12 -12 -12 -10 -10 -10 -10 -10 -11 -11 -11 -11 -10 -9 -8 -8 -8 -8 -8 -7 -8
-5 -5 -5 -5 -5 -5 -6 -6 -6 -6 -6 -7 -7 -7 -7 -7 -7 -8 -9 -9 -10 -10 -10 -10 -11 -11 -12 -13 -14 -13 -11 -11 -11 -11 -11 -11 -11 -11 -10 -9 -8 -9 -8 -8 -7 -7 -8
-5 -5 -5 -5 -6 -6 -6 -6 -7 -7 -6 -7 -7 -8 -8 -7 -7 -8 -9 -10 -10 -11 -11 -11 -11 -11 -12 -14 -13 -12 -11 -11 -10 -11 -10 -10 -11 -11 -10 -10 -8 -8 -9 -8 -6 -8 -9
-6 -6 -6 -6 -6 -6 -6 -7 -7 -7 -7 -8 -8 -8 -8 -8 -8 -8 -9 -9 -10 -11 -12 -12 -12 -12 -12 -14 -13 -12 -12 -11 -12 -11 -10 -10 -10 -10 -11 -10 -8 -9 -9 -9 -9 -10 -9
-6 -6 -6 -6 -6 -6 -7 -7 -7 -8 -8 -8 -8 -9 -9 -8 -7 -8 -9 -9 -10 -10 -12 -11 -12 -13 -13 -13 -13 -13 -13 -13 -12 -11 -11 -10 -10 -10 -10 -9 -9 -10 -10 -10 -10 -10 -10

GFSGBSN_700_temp_261.txt.gz
Temp
2 2 2 2 2 3 2 2 2 2 3 3 3 3 3 3 3 3 3 3 3 3 3 3 3 4 4 4 4 4 4 4 4 3 3 4 3 3 3 4 4 4 5 5 5 5 6
2 2 2 2 2 2 2 2 2 2 2 3 2 3 3 3 3 3 3 2 3 3 3 3 3 3 3 2 3 3 3 3 3 3 3 3 3 3 3 3 2 3 3 3 3 3 4
2 2 2 2 2 2 1 1 2 2 2 2 2 2 2 1 1 2 2 2 2 2 2 2 2 2 2 2 2 2 2 2 2 2 2 2 2 2 1 0 1 1 1 2 3 4 4
1 2 2 1 1 1 1 1 1 1 2 2 1 1 1 0 1 1 1 1 2 2 2 2 2 2 2 1 1 1 2 1 1 1 1 1 0 1 0 -1 0 0 1 2 4 5 5
1 1 1 1 1 1 1 1 1 1 1 1 1 1 0 0 0 1 1 1 1 1 2 2 2 1 1 0 1 -0 -0 -1 -1 -1 -1 -1 -1 -1 -2 -2 -0 2 2 4 4 5 5
1 1 1 1 1 1 1 1 1 1 1 1 1 0 0 0 0 1 1 1 1 1 1 1 1 -0 -1 -1 -1 -1 -1 -1 -2 -2 -4 -4 -4 -3 -1 -0 1 2 3 4 4 5 5
1 1 1 0 -0 0 -0 -0 -0 0 -0 0 0 0 0 0 0 1 1 1 1 1 1 0 -0 -1 -1 -1 -1 -2 -2 -3 -5 -4 -3 -3 -3 -1 -1 -1 -1 -1 -0 0 1 2 2
1 1 0 0 -0 -1 -1 -1 -0 -0 -0 -0 0 0 0 1 1 1 1 1 0 0 0 -0 -1 -1 -1 -2 -4 -5 -3 -5 -5 -4 -4 -3 -2 -2 -3 -3 -2 -2 -1 -0 0 1 1
0 0 -0 -0 -1 -1 -2 -1 -1 -0 -0 -0 -0 0 0 1 1 1 0 0 0 0 -2 -2 -2 -2 -2 -2 -4 -5 -5 -5 -5 -5 -4 -4 -3 -3 -4 -3 -2 -2 -1 -1 -0 -0 -0
0 -0 -0 -1 -1 -1 -1 -1 -1 -1 -1 -1 -0 0 0 0 0 0 0 0 0 -0 -4 -4 -4 -3 -5 -4 -5 -6 -6 -6 -6 -5 -5 -4 -4 -4 -4 -3 -3 -2 -2 -2 -2 -1 -0
-1 -1 -1 -1 -1 -2 -1 -1 -2 -1 -1 -1 -1 -0 0 0 -0 -0 -0 -0 -0 -0 -1 -4 -5 -3 -6 -6 -6 -5 -6 -7 -6 -5 -5 -5 -5 -4 -3 -3 -4 -3 -3 -3 -2 -2 -1
-1 -1 -1 -2 -2 -2 -2 -1 -1 -1 -1 -1 -1 -0 -0 -0 -0 -0 -0 -0 -1 -2 -3 -4 -5 -5 -5 -5 -6 -6 -6 -6 -6 -6 -5 -5 -4 -5 -4 -4 -4 -3 -3 -3 -2 -2 -1
-2 -1 -1 -2 -2 -2 -2 -1 -2 -1 -1 -1 -1 -1 -1 -1 -1 -1 -1 -1 -3 -3 -4 -4 -5 -6 -6 -6 -6 -6 -6 -6 -7 -7 -6 -5 -5 -5 -5 -5 -4 -5 -5 -3 -2 -1 -1
-2 -2 -1 -2 -2 -2 -2 -2 -2 -2 -2 -1 -1 -1 -1 -1 -1 -1 -1 -2 -4 -4 -5 -5 -6 -6 -6 -7 -7 -7 -7 -6 -8 -8 -8 -6 -5 -6 -7 -5 -5 -4 -4 -5 -4 -2 -0
-2 -2 -2 -2 -3 -3 -2 -2 -2 -2 -2 -2 -2 -1 -1 -1 -2 -2 -2 -3 -5 -5 -5 -6 -5 -5 -4 -6 -7 -7 -6 -7 -8 -9 -9 -8 -6 -6 -6 -5 -5 -4 -5 -5 -5 -3 -2
-3 -2 -2 -2 -2 -3 -3 -3 -2 -2 -2 -2 -2 -2 -2 -2 -2 -3 -3 -3 -6 -4 -5 -7 -6 -6 -6 -5 -7 -6 -6 -8 -8 -9 -9 -9 -9 -7 -6 -6 -5 -5 -5 -5 -5 -4 -3
-3 -2 -2 -2 -3 -3 -3 -3 -3 -2 -2 -3 -3 -3 -3 -2 -3 -3 -4 -4 -5 -5 -5 -7 -7 -7 -7 -7 -7 -7 -7 -7 -9 -9 -9 -9 -10 -9 -8 -6 -6 -5 -6 -7 -7 -5 -4
-3 -3 -3 -2 -3 -3 -3 -4 -3 -3 -3 -3 -3 -3 -3 -3 -3 -4 -4 -5 -5 -6 -6 -8 -8 -8 -8 -8 -7 -7 -7 -7 -9 -9 -9 -10 -11 -10 -8 -7 -6 -6 -7 -8 -7 -6 -7
-2 -3 -3 -3 -3 -3 -3 -4 -4 -3 -3 -4 -4 -4 -4 -3 -3 -4 -5 -5 -6 -7 -9 -9 -9 -9 -9 -8 -8 -8 -8 -8 -9 -9 -10 -10 -10 -10 -8 -6 -7 -9 -9 -10 -10 -9 -7
-2 -3 -3 -3 -3 -3 -3 -4 -4 -4 -4 -4 -4 -5 -4 -4 -4 -6 -8 -8 -7 -6 -7 -9 -9 -10 -9 -8 -8 -9 -8 -8 -9 -10 -10 -10 -11 -11 -10 -9 -9 -9 -9 -9 -10 -9 -7
-2 -3 -3 -3 -3 -3 -4 -4 -4 -4 -4 -5 -4 -5 -5 -5 -5 -5 -6 -8 -9 -9 -7 -9 -10 -9 -9 -9 -9 -9 -9 -9 -9 -10 -10 -10 -11 -10 -10 -10 -9 -9 -8 -8 -8 -8 -9
-2 -3 -3 -3 -4 -4 -4 -4 -5 -5 -5 -5 -5 -5 -6 -5 -5 -6 -8 -9 -9 -9 -9 -9 -10 -9 -10 -10 -10 -10 -10 -10 -10 -10 -10 -11 -11 -10 -10 -10 -9 -9 -8 -7 -7 -7 -6
-3 -3 -3 -3 -4 -4 -4 -4 -5 -5 -5 -5 -6 -6 -6 -6 -6 -8 -8 -9 -9 -9 -9 -10 -10 -11 -10 -10 -11 -11 -12 -12 -11 -11 -11 -10 -11 -10 -10 -9 -9 -9 -8 -7 -7 -6 -5
-4 -4 -4 -4 -4 -4 -4 -4 -5 -5 -6 -5 -6 -6 -6 -6 -8 -9 -8 -8 -10 -10 -10 -11 -11 -11 -11 -11 -11 -10 -11 -10 -11 -10 -10 -10 -10 -10 -10 -9 -8 -7 -6 -6 -6 -6 -6
-4 -4 -4 -4 -4 -4 -5 -5 -5 -5 -6 -6 -6 -6 -7 -7 -8 -10 -10 -10 -11 -11 -10 -11 -11 -12 -10 -10 -11 -9 -10 -9 -9 -9 -9 -9 -10 -10 -9 -8 -7 -7 -7 -8 -7 -7 -8
-4 -4 -4 -4 -5 -5 -5 -5 -5 -5 -5 -6 -6 -6 -7 -7 -8 -10 -11 -11 -11 -10 -11 -11 -12 -12 -11 -13 -13 -11 -9 -10 -9 -10 -8 -9 -10 -9 -9 -8 -7 -9 -8 -8 -7 -6 -8
-5 -5 -5 -5 -5 -5 -6 -6 -6 -6 -6 -6 -6 -7 -7 -7 -8 -9 -11 -11 -11 -12 -11 -12 -12 -12 -12 -13 -12 -10 -9 -9 -9 -9 -9 -9 -9 -9 -9 -8 -7 -7 -7 -7 -7 -8 -8
-5 -5 -5 -5 -5 -6 -6 -6 -6 -6 -7 -7 -8 -7 -7 -7 -7 -8 -9 -12 -12 -12 -11 -11 -11 -11 -11 -13 -12 -10 -10 -9 -9 -8 -8 -8 -8 -8 -9 -8 -7 -8 -7 -8 -8 -8 -8
-6 -5 -5 -5 -6 -6 -6 -6 -7 -7 -7 -8 -8 -10 -9 -8 -7 -8 -8 -8 -9 -12 -12 -12 -11 -13 -12 -13 -12 -12 -11 -11 -10 -9 -8 -9 -8 -9 -9 -8 -8 -8 -8 -8 -8 -8 -8